Upington, South Africa

7:00 PM SAST on July 26, 2017 (GMT +0200)
Upington

Weather History for FAUP - January, 2014

Change the Weather History Date:

Tuesday, January 21, 2014

  Actual Average Record
Temperature  
Mean Temperature 87 °F -  
Max Temperature 106 °F 93 °F 106 °F (2014)
Min Temperature 68 °F 65 °F 60 °F (2001)
Cooling Degree Days 22    
Growing Degree Days 37 (Base 50)    
Moisture  
Dew Point 38 °F    
Average Humidity 18    
Maximum Humidity 37    
Minimum Humidity 4    
Precipitation  
Precipitation 0.00 in 0.04 in - ()
Sea Level Pressure  
Sea Level Pressure 29.92 in    
Wind  
Wind Speed 7 mph ()    
Max Wind Speed 15 mph    
Max Gust Speed 20 mph    
Visibility 7.2 miles    
Events      
Averages and records for this station are not official NWS values.
T = Trace of Precipitation, MM = Missing Value Source: Averaged Metar Reports

Daily Weather History Graph

Daily Weather History Graph

Search for Another Location

Airport or City:

Trip Planner

Search our weather history database for the weather conditions in past years. The results will help you decide how hot, cold, wet, or windy it might be!

Date:

Astronomy

Jan. 21, 2014 Rise Set
Actual Time 5:56 AM SAST 7:35 PM SAST
Civil Twilight 5:30 AM SAST 8:01 PM SAST
Nautical Twilight 4:59 AM SAST 8:32 PM SAST
Astronomical Twilight 4:27 AM SAST 9:04 PM SAST
Moon 10:33 PM SAST (1/21) 10:22 AM SAST (1/21)
Length of Visible Light 14h 30m
Length of Day
13h 38m
Waning Gibbous, 77% of the Moon is Illuminated
Jan 21
Waning Gibbous
Jan 24
Last Quarter
Jan 30
New
Feb 6
First Quarter
Feb 15
Full

Hourly Weather History & Observations

Time (SAST) Temp. Dew Point Humidity Pressure Visibility Wind Dir Wind Speed Gust Speed Precip Events Conditions
12:00 AM 84.2 °F 44.6 °F 25% 29.95 in - WSW 11.5 mph - N/A   Unknown
1:00 AM 80.6 °F 46.4 °F 30% 29.95 in - WSW 10.4 mph - N/A   Clear
2:00 AM 80 °F 43 °F 17%  in 25 mi WSW 11.5 mph - -  
2:00 AM 78.8 °F 42.8 °F 28% 29.92 in - WSW 11.5 mph - N/A   Clear
3:00 AM 77.0 °F 41.0 °F 28% 29.92 in - WSW 6.9 mph - N/A   Clear
4:00 AM 73.4 °F 41.0 °F 31% 29.92 in - WSW 2.3 mph - N/A   Clear
5:00 AM 72 °F 40 °F 21%  in 25 mi North 2.3 mph - -  
5:00 AM 71.6 °F 39.2 °F 31% 29.92 in - North 2.3 mph - N/A   Clear
6:00 AM 68.0 °F 41.0 °F 37% 29.95 in - East 3.5 mph - N/A   Clear
6:24 AM 73.4 °F 41.0 °F 31% 29.95 in - East 4.6 mph - N/A   Clear
7:00 AM 75.2 °F 42.8 °F 31% 29.98 in - East 3.5 mph - N/A   Clear
7:28 AM 80.6 °F 46.4 °F 30% 29.98 in - East 1.2 mph - N/A   Clear
8:00 AM 85 °F 49 °F 19%  in 25 mi ESE 3.5 mph - -   Scattered Clouds
8:00 AM 84.2 °F 48.2 °F 29% 29.98 in - ESE 2.3 mph - N/A   Clear
9:00 AM 86.0 °F 50.0 °F 29% 29.98 in - East 15.0 mph - N/A   Clear
10:00 AM 93.2 °F 48.2 °F 21% 29.98 in - ENE 11.5 mph - N/A   Clear
11:00 AM 98 °F 45 °F 9%  in 16 mi ENE 6.9 mph - -   Haze
11:00 AM 96.8 °F 44.6 °F 17% 29.95 in - ENE 6.9 mph - N/A   Clear
12:00 PM 100.4 °F 37.4 °F 11% 29.95 in 6.2 mi WSW 3.5 mph - N/A   Partly Cloudy
1:00 PM 100.4 °F 32.0 °F 9% 29.95 in 6.2 mi NW 6.9 mph - N/A   Partly Cloudy
2:00 PM 104 °F 32 °F 4%  in 25 mi WSW 6.9 mph - -   Scattered Clouds
2:00 PM 104.0 °F 32.0 °F 8% 29.92 in 6.2 mi WSW 5.8 mph - N/A   Partly Cloudy
3:00 PM 104.0 °F 32.0 °F 8% 29.89 in 6.2 mi West 11.5 mph - N/A   Partly Cloudy
4:00 PM 104.0 °F 32.0 °F 8% 29.86 in 6.2 mi West 5.8 mph 19.6 mph N/A   Partly Cloudy
5:00 PM 104 °F 32 °F 4%  in 25 mi WSW 10.4 mph - -   Scattered Clouds
5:00 PM 104.0 °F 32.0 °F 8% 29.83 in 6.2 mi WSW 10.4 mph - N/A   Partly Cloudy
6:00 PM 102.2 °F 32.0 °F 9% 29.83 in 6.2 mi WSW 6.9 mph - N/A   Partly Cloudy
7:00 PM 100.4 °F 32.0 °F 9% 29.83 in 6.2 mi SW 11.5 mph - N/A   Partly Cloudy
8:00 PM 94 °F 32 °F 5%  in 25 mi South 6.9 mph - -   Scattered Clouds
8:00 PM 93.2 °F 32.0 °F 11% 29.86 in 6.2 mi South 5.8 mph - N/A   Partly Cloudy
9:00 PM 86.0 °F 30.2 °F 13% 29.86 in - SSW 4.6 mph - N/A   Unknown
10:00 PM 86.0 °F 26.6 °F 12% 29.89 in - West 4.6 mph - N/A   Unknown
11:00 PM 84 °F 26 °F 6%  in - West 5.8 mph - -  
11:00 PM 82.4 °F 26.6 °F 13% 29.89 in - West 5.8 mph - N/A   Unknown